Vibrant Curiosity — 2BQE2 — position and weather

sailwx.info

Track history (hours):
 
Tides and Currents Weather Stations Pressure Air Temp Water Temp Dewpoint Dewpoint Depression Visibility Wind Speed Wind Dir Waves Ship Positions

Vibrant Curiosity

Last reported at 2014-Jul-31 02:33 UTC. Time now 2014-Jul-31 11:28 UTC.
Position N 39°38' E 026°01'.

Length 85 m; draft 4 m.

Type: Pleasure craft. MMSI: 235068366.

Date/timePositionNaut miles runAvg speedWind from/ knotsBaromVisibWave heightAir tempDewpointWater temp
2014-Jul-31 02:33N 39°38' E 026°01'1313.3
2014-Jul-31 01:33N 39°26' E 025°53'1313.2
2014-Jul-31 00:33N 39°13' E 025°48'1111.4
2014-Jul-30 23:33N 39°02' E 025°46'1312.5
2014-Jul-30 22:29N 38°49' E 025°46'2512.8
2014-Jul-30 20:33N 38°24' E 025°48'5811.5
2014-Jul-30 15:33N 37°57' E 026°53'1312.9
2014-Jul-30 14:32N 37°54' E 027°09'16 0.6
2014-Jul-29 11:19N 37°41' E 026°57'0 0.0
2014-Jul-29 02:31N 37°41' E 026°57'0 0.0
2014-Jul-28 23:32N 37°41' E 026°57'0 0.0
2014-Jul-28 17:32N 37°41' E 026°57'  
2014-Jul-23 02:33N 37°15' E 026°33'1312.8
2014-Jul-23 01:33N 37°17' E 026°17'1413.8
2014-Jul-23 00:33N 37°19' E 025°60'1414.3
2014-Jul-22 23:33N 37°21' E 025°42'1414.4
2014-Jul-22 22:33N 37°23' E 025°24'4 3.9
2014-Jul-22 21:33N 37°25' E 025°20'0 0.0
2014-Jul-22 20:30N 37°25' E 025°20'0 0.0
2014-Jul-22 19:32N 37°25' E 025°20'0 0.0
2014-Jul-22 18:30N 37°25' E 025°20'0 0.0
2014-Jul-22 17:32N 37°25' E 025°20'0 0.0
2014-Jul-22 16:30N 37°25' E 025°20'4 4.7
2014-Jul-22 15:34N 37°22' E 025°16'1 1.3
2014-Jul-22 14:33N 37°23' E 025°16'0 0.0
2014-Jul-22 13:29N 37°23' E 025°16'0 0.0
2014-Jul-22 12:33N 37°23' E 025°16'0 0.0
2014-Jul-22 11:33N 37°23' E 025°16'0 0.0
2014-Jul-22 10:29N 37°23' E 025°16'0 0.0
2014-Jul-22 09:33N 37°23' E 025°16'0 0.0
2014-Jul-22 08:33N 37°23' E 025°16'0 0.0
2014-Jul-22 07:33N 37°23' E 025°16'1 1.5
2014-Jul-22 06:33N 37°22' E 025°16'4 3.6
2014-Jul-22 05:32N 37°24' E 025°20'0 0.0
2014-Jul-22 04:32N 37°24' E 025°20'0 0.0
2014-Jul-22 03:32N 37°24' E 025°20'0 0.0
2014-Jul-22 02:32N 37°24' E 025°20'0 0.0
2014-Jul-22 01:32N 37°24' E 025°20'0 0.0
2014-Jul-22 00:32N 37°24' E 025°20'0 0.0
2014-Jul-21 23:32N 37°24' E 025°20'0 0.0
2014-Jul-21 22:32N 37°24' E 025°20'0 0.0
2014-Jul-21 21:32N 37°24' E 025°20'0 0.1
2014-Jul-21 20:30N 37°24' E 025°19'0 0.0
2014-Jul-21 20:14N 37°24' E 025°19'0 0.0
2014-Jul-21 19:32N 37°24' E 025°19'0 0.0
2014-Jul-21 18:32N 37°24' E 025°19'0 0.0
2014-Jul-21 17:32N 37°24' E 025°19'0 0.0
2014-Jul-21 16:30N 37°24' E 025°19'0 0.0
2014-Jul-21 15:33N 37°24' E 025°19'0 0.0
2014-Jul-21 14:33N 37°24' E 025°19'0 0.0
2014-Jul-21 13:32N 37°24' E 025°19'0 0.0
2014-Jul-21 12:33N 37°24' E 025°20'0 0.0
2014-Jul-21 11:33N 37°24' E 025°19'0 0.0
2014-Jul-21 10:30N 37°24' E 025°20'0 0.0
2014-Jul-21 09:33N 37°24' E 025°20'0 0.0
2014-Jul-21 08:24N 37°24' E 025°20'0 0.0
2014-Jul-21 07:33N 37°24' E 025°19'0 0.0
2014-Jul-21 06:33N 37°24' E 025°20'0 0.0
2014-Jul-21 05:27N 37°24' E 025°19'0 0.0
2014-Jul-21 04:33N 37°24' E 025°19'0 0.0
2014-Jul-21 03:33N 37°24' E 025°19'  
Track history (hours):
 
Tides and Currents Weather Stations Pressure Air Temp Water Temp Dewpoint Dewpoint Depression Visibility Wind Speed Wind Dir Waves Ship Positions

Vibrant Curiosity

Last reported at 2014-Jul-31 02:33 UTC. Time now 2014-Jul-31 11:28 UTC.
Position N 39°38' E 026°01'.

Length 85 m; draft 4 m.

Type: Pleasure craft. MMSI: 235068366.

Date/timePositionNaut miles runAvg speedWind from/ knotsBaromVisibWave heightAir tempDewpointWater temp
2014-Jul-31 02:33N 39°38' E 026°01'1313.3
2014-Jul-31 01:33N 39°26' E 025°53'1313.2
2014-Jul-31 00:33N 39°13' E 025°48'1111.4
2014-Jul-30 23:33N 39°02' E 025°46'1312.5
2014-Jul-30 22:29N 38°49' E 025°46'2512.8
2014-Jul-30 20:33N 38°24' E 025°48'5811.5
2014-Jul-30 15:33N 37°57' E 026°53'1312.9
2014-Jul-30 14:32N 37°54' E 027°09'16 0.6
2014-Jul-29 11:19N 37°41' E 026°57'0 0.0
2014-Jul-29 02:31N 37°41' E 026°57'0 0.0
2014-Jul-28 23:32N 37°41' E 026°57'0 0.0
2014-Jul-28 17:32N 37°41' E 026°57'  
2014-Jul-23 02:33N 37°15' E 026°33'1312.8
2014-Jul-23 01:33N 37°17' E 026°17'1413.8
2014-Jul-23 00:33N 37°19' E 025°60'1414.3
2014-Jul-22 23:33N 37°21' E 025°42'1414.4
2014-Jul-22 22:33N 37°23' E 025°24'4 3.9
2014-Jul-22 21:33N 37°25' E 025°20'0 0.0
2014-Jul-22 20:30N 37°25' E 025°20'0 0.0
2014-Jul-22 19:32N 37°25' E 025°20'0 0.0
2014-Jul-22 18:30N 37°25' E 025°20'0 0.0
2014-Jul-22 17:32N 37°25' E 025°20'0 0.0
2014-Jul-22 16:30N 37°25' E 025°20'4 4.7
2014-Jul-22 15:34N 37°22' E 025°16'1 1.3
2014-Jul-22 14:33N 37°23' E 025°16'0 0.0
2014-Jul-22 13:29N 37°23' E 025°16'0 0.0
2014-Jul-22 12:33N 37°23' E 025°16'0 0.0
2014-Jul-22 11:33N 37°23' E 025°16'0 0.0
2014-Jul-22 10:29N 37°23' E 025°16'0 0.0
2014-Jul-22 09:33N 37°23' E 025°16'0 0.0
2014-Jul-22 08:33N 37°23' E 025°16'0 0.0
2014-Jul-22 07:33N 37°23' E 025°16'1 1.5
2014-Jul-22 06:33N 37°22' E 025°16'4 3.6
2014-Jul-22 05:32N 37°24' E 025°20'0 0.0
2014-Jul-22 04:32N 37°24' E 025°20'0 0.0
2014-Jul-22 03:32N 37°24' E 025°20'0 0.0
2014-Jul-22 02:32N 37°24' E 025°20'0 0.0
2014-Jul-22 01:32N 37°24' E 025°20'0 0.0
2014-Jul-22 00:32N 37°24' E 025°20'0 0.0
2014-Jul-21 23:32N 37°24' E 025°20'0 0.0
2014-Jul-21 22:32N 37°24' E 025°20'0 0.0
2014-Jul-21 21:32N 37°24' E 025°20'0 0.1
2014-Jul-21 20:30N 37°24' E 025°19'0 0.0
2014-Jul-21 20:14N 37°24' E 025°19'0 0.0
2014-Jul-21 19:32N 37°24' E 025°19'0 0.0
2014-Jul-21 18:32N 37°24' E 025°19'0 0.0
2014-Jul-21 17:32N 37°24' E 025°19'0 0.0
2014-Jul-21 16:30N 37°24' E 025°19'0 0.0
2014-Jul-21 15:33N 37°24' E 025°19'0 0.0
2014-Jul-21 14:33N 37°24' E 025°19'0 0.0
2014-Jul-21 13:32N 37°24' E 025°19'0 0.0
2014-Jul-21 12:33N 37°24' E 025°20'0 0.0
2014-Jul-21 11:33N 37°24' E 025°19'0 0.0
2014-Jul-21 10:30N 37°24' E 025°20'0 0.0
2014-Jul-21 09:33N 37°24' E 025°20'0 0.0
2014-Jul-21 08:24N 37°24' E 025°20'0 0.0
2014-Jul-21 07:33N 37°24' E 025°19'0 0.0
2014-Jul-21 06:33N 37°24' E 025°20'0 0.0
2014-Jul-21 05:27N 37°24' E 025°19'0 0.0
2014-Jul-21 04:33N 37°24' E 025°19'0 0.0
2014-Jul-21 03:33N 37°24' E 025°19'  

Dump ship's entire track history